Change the Weather History Date:

Sunday, September 22, 2013

  Actual Average Record
Temperature  
Mean Temperature 76 °F 78 °F  
Max Temperature 87 °F 89 °F 103 °F (1926)
Min Temperature 65 °F 68 °F 51 °F (1983)
Degree Days  
Heating Degree Days 0 0  
Month to date heating degree days 0 0  
Since 1 July heating degree days 0 0  
Cooling Degree Days 11 13  
Month to date cooling degree days 410 348  
Year to date cooling degree days 2904 2701  
Growing Degree Days 26 (Base 50)    
Moisture  
Dew Point 63 °F    
Average Humidity 68    
Maximum Humidity 93    
Minimum Humidity 42    
Precipitation  
Precipitation 0.00 in 0.13 in 2.87 in (1958)
Month to date precipitation 4.89 3.16  
Year to date precipitation 19.81 30.03  
Snow  
Snow 0.00 in - - ()
Month to date snowfall 0.0  
Since 1 July snowfall 0.0  
Since 1 September snowfall 0.0  
Snow Depth 0.00 in    
Sea Level Pressure  
Sea Level Pressure 29.80 in    
Wind  
Wind Speed 7 mph (NNE)    
Max Wind Speed 17 mph    
Max Gust Speed 21 mph    
Visibility 10 miles    
Events      
T = Trace of Precipitation, MM = Missing Value Source: NWS Daily Summary

Daily Weather History Graph

Daily Weather History Graph

Search for Another Location

Airport or City:

Trip Planner

Search our weather history database for the weather conditions in past years. The results will help you decide how hot, cold, wet, or windy it might be!

Date:

Astronomy

Sep. 22, 2013 Rise Set
Actual Time 7:16 AM CDT 7:23 PM CDT
Civil Twilight 6:52 AM CDT 7:47 PM CDT
Nautical Twilight 6:25 AM CDT 8:14 PM CDT
Astronomical Twilight 5:57 AM CDT 8:42 PM CDT
Moon 9:34 PM CDT (9/22) 10:19 AM CDT (9/22)
Length of Visible Light 12h 54m
Length of Day
12h 07m
Waning Gibbous, 88% of the Moon is Illuminated
Sep 22
Waning Gibbous
Sep 26
Last Quarter
Oct 4
New
Oct 11
First Quarter
Oct 18
Full

Hourly Weather History & Observations

Time (CDT) Temp. Heat Index Dew Point Humidity Pressure Visibility Wind Dir Wind Speed Gust Speed Precip Events Conditions
12:51 AM 72.0 °F - 68.0 °F 87% 29.82 in 10.0 mi NNW 4.6 mph - N/A   Overcast
1:51 AM 70.0 °F - 66.9 °F 90% 29.81 in 10.0 mi NNW 5.8 mph - N/A   Scattered Clouds
2:51 AM 69.1 °F - 66.0 °F 90% 29.81 in 10.0 mi NNW 5.8 mph - N/A   Clear
3:51 AM 68.0 °F - 64.9 °F 90% 29.80 in 10.0 mi North 5.8 mph - N/A   Clear
4:51 AM 68.0 °F - 64.0 °F 87% 29.79 in 10.0 mi North 6.9 mph - N/A   Clear
5:51 AM 66.9 °F - 64.0 °F 90% 29.80 in 10.0 mi North 6.9 mph - N/A   Clear
6:51 AM 66.0 °F - 63.0 °F 90% 29.81 in 10.0 mi North 6.9 mph - N/A   Clear
7:51 AM 66.0 °F - 63.0 °F 90% 29.82 in 10.0 mi North 5.8 mph - N/A   Clear
8:51 AM 71.1 °F - 62.1 °F 73% 29.83 in 10.0 mi NNE 10.4 mph - N/A   Clear
9:51 AM 75.0 °F - 62.1 °F 64% 29.84 in 10.0 mi NNE 12.7 mph - N/A   Clear
10:51 AM 79.0 °F - 61.0 °F 54% 29.85 in 10.0 mi NNE 9.2 mph - N/A   Clear
11:51 AM 81.0 °F 81.3 °F 59.0 °F 47% 29.84 in 10.0 mi NNE 12.7 mph - N/A   Clear
12:51 PM 82.9 °F 82.8 °F 59.0 °F 44% 29.83 in 10.0 mi NE 11.5 mph 16.1 mph N/A   Clear
1:51 PM 84.0 °F 83.8 °F 59.0 °F 43% 29.81 in 10.0 mi NNE 12.7 mph 16.1 mph N/A   Clear
2:51 PM 86.0 °F 86.1 °F 61.0 °F 43% 29.79 in 10.0 mi North 6.9 mph 16.1 mph N/A   Clear
3:51 PM 86.0 °F 85.7 °F 60.1 °F 41% 29.76 in 10.0 mi NNE 8.1 mph - N/A   Clear
4:51 PM 86.0 °F 86.1 °F 61.0 °F 43% 29.74 in 10.0 mi North 6.9 mph 16.1 mph N/A   Clear
5:51 PM 84.9 °F 86.1 °F 64.0 °F 49% 29.74 in 10.0 mi NE 4.6 mph - N/A   Clear
6:51 PM 80.1 °F 82.1 °F 66.0 °F 62% 29.75 in 10.0 mi NE 4.6 mph - N/A   Clear
7:51 PM 73.9 °F - 64.9 °F 73% 29.76 in 10.0 mi NE 5.8 mph - N/A   Clear
8:51 PM 72.0 °F - 63.0 °F 73% 29.78 in 10.0 mi North 5.8 mph - N/A   Clear
9:51 PM 69.1 °F - 63.0 °F 81% 29.78 in 10.0 mi North 5.8 mph - N/A   Clear
10:51 PM 68.0 °F - 63.0 °F 84% 29.79 in 10.0 mi ENE 4.6 mph - N/A   Clear
11:51 PM 69.1 °F - 64.9 °F 87% 29.79 in 10.0 mi Calm Calm - N/A   Clear